Date_and_time,latitude,longitude,wind_speed,RelWindDirFrom,WindDirFrom,air_pressure,air_temperature,relative_humidity,Temp,platform_speed_wrt_ground,air_pressure_at_mean_sea_level,platform_orientation
2019-06-04 23:40,50.6948916666667,-96.56222,5.2,11.5,3,979.23,18.9,61,12.86,0.0,1005.17,282.6
2019-06-04 23:50,50.6948866666667,-96.5622133333333,5.8,10.5,13,979.30,19.3,60,12.88,0.0,1005.25,282.6
2019-06-05 00:00,50.694885,-96.5622116666667,5.1,11.3,6,979.42,19.5,59,12.94,0.0,1005.37,286.1
2019-06-05 00:10,50.694885,-96.5622116666667,5.9,12.2,12,979.50,19.5,59,12.99,0.0,1005.44,286.1
2019-06-05 00:20,50.694885,-96.562215,6.9,11.5,16,979.62,19.4,59,12.99,0.0,1005.51,286.1
2019-06-05 00:30,50.694875,-96.5622216666667,7.2,13.1,12,979.71,19.2,60,12.99,0.0,1005.66,286.1
2019-06-05 00:40,50.694875,-96.5622133333333,6.5,12.2,12,979.86,19.2,60,13.03,0.0,1005.78,286.1
2019-06-05 00:50,50.6948766666667,-96.5622133333333,7.2,14.9,9,980.06,19.0,60,13.05,0.0,1005.89,286.1
2019-06-05 01:00,50.6948766666667,-96.5622133333333,8.0,13.4,16,980.14,18.8,61,13.03,0.0,1005.97,188.3
2019-06-05 01:10,50.6948766666667,-96.562215,6.9,10.7,20,980.23,18.6,61,13.01,0.0,1006.08,188.3
2019-06-05 01:20,50.6948716666667,-96.5621983333333,7.2,12.1,23,980.41,18.3,62,13.09,0.0,1006.29,188.3
2019-06-05 01:30,50.69487,-96.56222,5.2,9.2,20,980.64,18.0,64,13.05,0.0,1006.53,188.3
2019-06-05 01:40,50.69487,-96.5622116666667,6.8,11.2,28,980.74,18.0,64,13.04,0.0,1006.62,188.3
2019-06-05 01:50,50.694895,-96.5622383333333,7.4,13.1,30,980.87,17.8,64,12.98,0.0,1006.75,188.3
2019-06-05 02:00,50.6948816666667,-96.562225,7.8,12.3,25,981.03,17.6,64,12.96,0.0,1006.92,273.5
2019-06-05 02:10,50.694885,-96.56223,8.7,13.8,27,981.14,17.6,64,12.95,0.0,1007.04,273.5
2019-06-05 02:20,50.6948716666667,-96.562205,8.9,15.2,23,981.39,17.2,65,12.97,0.0,1007.32,273.5
2019-06-05 02:30,50.6948716666667,-96.5622033333333,9.8,17.2,22,981.56,16.7,65,12.98,0.0,1007.52,273.5
2019-06-05 02:40,50.6948733333333,-96.562205,10.2,16.5,29,981.83,16.1,66,13.01,0.0,1007.84,273.5
2019-06-05 02:50,50.6948733333333,-96.562205,11.0,19.7,26,982.00,15.7,66,13.01,0.0,1008.04,273.5
2019-06-05 03:00,50.694875,-96.5622066666667,11.3,17.9,24,982.18,15.6,65,12.98,0.0,1008.23,121.8
2019-06-05 03:10,50.6948783333333,-96.5622066666667,10.5,16.9,22,982.24,15.3,67,12.95,0.0,1008.32,121.8
2019-06-05 03:20,50.694895,-96.5622133333333,9.7,14.4,19,982.35,14.9,69,12.98,0.0,1008.47,121.8
2019-06-05 03:30,50.6948883333333,-96.562215,10.3,16.3,24,982.31,14.5,71,13.01,0.0,1008.44,121.8
2019-06-05 03:40,50.6948883333333,-96.562155,10.2,16.5,24,982.33,14.2,71,12.97,0.0,1008.48,121.8
2019-06-05 03:50,50.694895,-96.56221,10.4,15.7,19,982.41,14.2,71,12.92,0.0,1008.58,121.8
2019-06-05 04:00,50.69489,-96.5622083333333,9.7,14.9,15,982.47,14.0,71,12.92,0.0,1008.65,360.0
2019-06-05 04:10,50.69489,-96.56221,9.0,13.7,19,982.62,13.8,73,12.93,0.0,1008.83,360.0
2019-06-05 04:20,50.6948883333333,-96.56221,8.4,13.9,17,982.55,13.7,73,12.94,0.0,1008.78,360.0
2019-06-05 04:30,50.6948883333333,-96.5622083333333,9.1,15.4,15,982.45,13.7,72,12.87,0.0,1008.71,360.0
2019-06-05 04:40,50.6948883333333,-96.5622083333333,7.7,13.0,13,982.49,13.6,73,12.86,0.0,1008.78,360.0
2019-06-05 04:50,50.6948883333333,-96.56221,7.4,11.2,15,982.60,13.4,75,12.80,0.0,1008.90,360.0
2019-06-05 05:00,50.6948883333333,-96.56221,6.3,10.4,11,982.72,13.1,77,12.74,0.0,1009.06,360.0
2019-06-05 05:10,50.6948883333333,-96.56221,6.0,10.1,7,982.76,13.0,79,12.77,0.0,1009.12,360.0
2019-06-05 05:20,50.6948883333333,-96.56221,6.2,10.7,11,982.84,12.9,79,12.80,0.0,1009.22,360.0
2019-06-05 05:30,50.6948883333333,-96.56221,6.1,10.8,12,982.86,12.8,80,12.77,0.0,1009.26,360.0
2019-06-05 05:40,50.694885,-96.5622166666667,4.5,8.1,7,982.99,12.7,80,12.78,0.0,1009.40,360.0
2019-06-05 05:50,50.6948833333333,-96.5622166666667,5.6,10.4,349,983.09,12.7,80,12.75,0.0,1009.51,360.0
2019-06-05 06:00,50.6948816666667,-96.5622166666667,6.6,11.1,346,983.13,12.8,81,12.75,0.0,1009.56,270.0
2019-06-05 06:10,50.69488,-96.5622183333333,6.2,10.0,345,983.05,12.7,83,12.79,0.0,1009.48,270.0
2019-06-05 06:20,50.69488,-96.5622166666667,4.0,9.9,349,983.05,12.6,85,12.74,0.0,1009.49,270.0
2019-06-05 06:30,50.69488,-96.562215,2.7,6.7,11,983.08,12.5,87,12.76,0.0,1009.52,270.0
2019-06-05 06:40,50.69488,-96.562215,2.0,5.4,356,983.15,12.4,88,12.77,0.0,1009.61,270.0
2019-06-05 06:50,50.69488,-96.5622133333333,1.7,5.9,9,983.23,12.4,90,12.76,0.0,1009.71,270.0
2019-06-05 07:00,50.69488,-96.5622133333333,1.1,3.6,21,983.38,12.3,91,12.78,0.0,1009.87,360.0
2019-06-05 07:10,50.69488,-96.5622133333333,1.2,4.0,349,983.37,12.2,93,12.78,0.0,1009.87,360.0
2019-06-05 07:20,50.69488,-96.5622116666667,3.5,4.8,336,983.31,12.1,94,12.75,0.0,1009.81,360.0
2019-06-05 07:30,50.6948816666667,-96.5622116666667,4.5,6.2,340,983.31,12.1,95,12.76,0.0,1009.83,360.0
2019-06-05 07:40,50.6948816666667,-96.5622116666667,6.9,10.2,331,983.42,12.1,97,12.73,0.0,1009.94,360.0
2019-06-05 07:50,50.6948816666667,-96.5622116666667,9.1,10.9,332,983.48,12.2,93,12.71,0.0,1010.00,360.0
2019-06-05 08:00,50.6948816666667,-96.56221,9.7,12.6,333,983.60,12.1,93,12.74,0.0,1010.12,360.0
2019-06-05 08:10,50.694855,-96.5622033333333,8.6,10.1,334,983.70,12.1,96,12.75,0.0,1010.23,360.0
2019-06-05 08:20,50.6948766666667,-96.5622083333333,9.5,11.7,334,983.68,12.0,98,12.73,0.0,1010.22,360.0
2019-06-05 08:30,50.694875,-96.5622016666667,9.9,11.6,333,983.65,000.0,99,12.73,0.0,1010.20,360.0
2019-06-05 08:40,50.694875,-96.5622033333333,9.2,11.4,335,983.60,11.7,99,12.72,0.0,1010.16,360.0
2019-06-05 08:50,50.694875,-96.5622033333333,6.4,10.0,336,983.55,11.5,99,12.67,0.0,1010.11,360.0
2019-06-05 09:00,50.6948766666667,-96.562205,3.3,7.2,351,983.49,11.5,99,12.67,0.0,1010.06,90.0
2019-06-05 09:10,50.6948783333333,-96.562205,3.5,8.6,349,983.58,11.5,99,12.66,0.0,1010.15,90.0
2019-06-05 09:20,50.6948783333333,-96.562205,2.1,6.9,358,983.71,11.5,99,12.64,0.0,1010.29,90.0
2019-06-05 09:30,50.6948766666667,-96.5622066666667,2.2,4.9,57,983.78,11.5,99,12.64,0.0,1010.36,90.0
2019-06-05 09:40,50.6948766666667,-96.5622066666667,2.4,4.3,89,983.73,11.4,99,12.66,0.0,1010.32,90.0
2019-06-05 09:50,50.694875,-96.5622083333333,1.4,4.1,6,983.84,11.1,99,12.65,0.0,1010.44,90.0
2019-06-05 10:00,50.694875,-96.5622083333333,2.3,4.4,1,983.86,11.0,99,12.63,0.0,1010.47,90.0
2019-06-05 10:10,50.6948866666667,-96.5621933333333,3.1,4.9,347,983.86,10.9,100,12.63,0.0,1010.48,90.0
2019-06-05 10:20,50.6948766666667,-96.5622016666667,1.9,3.5,13,983.84,10.8,100,12.59,0.0,1010.47,90.0
2019-06-05 10:30,50.6948633333333,-96.5622033333333,1.6,3.3,349,983.95,10.7,100,12.64,0.0,1010.60,90.0
2019-06-05 10:40,50.6948683333333,-96.56221,2.3,4.5,358,983.98,10.7,100,12.64,0.0,1010.63,90.0
2019-06-05 10:50,50.6948716666667,-96.56221,1.8,3.1,358,984.13,11.0,100,12.62,0.0,1010.78,90.0
2019-06-05 11:00,50.6948716666667,-96.56221,2.1,3.2,355,984.17,11.3,100,12.63,0.0,1010.81,121.8
2019-06-05 11:10,50.69487,-96.56221,2.6,4.1,1,984.24,11.5,99,12.59,0.0,1010.87,121.8
2019-06-05 11:20,50.6948716666667,-96.5622066666667,4.9,6.5,337,984.34,11.6,99,12.58,0.0,1010.97,121.8
2019-06-05 11:30,50.6948733333333,-96.5622083333333,3.4,5.1,347,984.42,11.9,99,12.61,0.0,1011.04,121.8
2019-06-05 11:40,50.69488,-96.5622,4.6,7.3,338,984.42,12.1,99,12.58,0.0,1011.05,121.8
2019-06-05 11:50,50.6948866666667,-96.5622,7.4,8.8,333,984.59,12.0,99,12.60,0.0,1011.22,121.8
2019-06-05 12:00,50.694885,-96.5621966666667,6.1,8.0,335,984.71,12.1,99,12.63,0.0,1011.35,48.2
2019-06-05 12:10,50.694885,-96.5621983333333,7.3,8.8,332,984.91,12.1,99,12.61,0.0,1011.56,48.2
2019-06-05 12:20,50.6948866666667,-96.5622016666667,5.7,8.3,338,985.10,12.1,99,12.59,0.0,1011.76,48.2
2019-06-05 12:30,50.6948916666667,-96.5622416666667,4.2,7.6,349,985.08,12.3,98,12.56,0.0,1011.73,48.2
2019-06-05 12:40,50.693935,-96.5610216666667,2.6,5.0,352,0000.00,12.5,97,12.49,0.4,1011.81,48.2
2019-06-05 12:50,50.70785,-96.5818766666667,12.7,19.0,338,984.80,12.0,99,12.38,6.9,1011.43,48.2
2019-06-05 13:00,50.73794,-96.5896733333333,17.8,18.9,356,984.54,11.4,100,12.40,11.0,1011.18,338.0
2019-06-05 13:10,50.7660533333333,-96.5935716666667,16.1,17.7,357,984.79,11.4,100,12.62,10.2,1011.43,338.0
2019-06-05 13:20,50.79663,-96.5936466666667,16.3,17.4,357,984.88,11.4,100,12.96,11.0,1011.51,338.0
2019-06-05 13:30,50.8271116666667,-96.5925583333333,16.0,17.1,359,984.75,11.4,100,12.35,11.0,1011.37,338.0
2019-06-05 13:40,50.8575916666667,-96.590865,16.4,16.9,2,984.62,11.3,99,12.03,11.0,1011.24,338.0
2019-06-05 13:50,50.8882216666667,-96.5891366666667,16.1,17.0,3,984.69,11.3,99,12.00,11.0,1011.31,338.0
2019-06-05 14:00,50.918825,-96.58802,16.7,17.8,2,984.71,11.3,99,11.83,11.0,1011.33,355.8
2019-06-05 14:10,50.9494166666667,-96.5869783333333,17.6,18.5,1,984.62,11.5,99,11.92,11.0,1011.23,355.8
2019-06-05 14:20,50.9801033333333,-96.5849933333333,16.6,18.2,1,984.79,11.5,99,11.84,11.1,1011.39,355.8
2019-06-05 14:30,50.99274,-96.5844283333333,10.7,17.3,353,985.20,11.6,99,11.78,4.6,1011.80,355.8
2019-06-05 14:40,50.999335,-96.5842483333333,8.9,9.5,344,985.23,11.7,98,11.77,2.4,1011.85,355.8
2019-06-05 14:50,51.0067683333333,-96.584105,8.4,8.9,340,985.20,11.8,96,11.77,2.7,1011.84,355.8
2019-06-05 15:00,51.017515,-96.5837983333333,8.9,11.5,339,985.29,11.9,93,11.79,3.9,1011.93,357.6
2019-06-05 15:10,51.02214,-96.5835383333333,4.7,11.2,333,985.33,12.1,89,11.84,1.7,1011.96,357.6
2019-06-05 15:20,51.0221316666667,-96.5831866666667,2.7,3.0,318,985.34,12.9,74,11.78,0.1,1011.93,357.6
2019-06-05 15:30,51.0221766666667,-96.58321,2.4,2.9,325,985.27,13.5,69,11.78,0.0,1011.84,357.6
2019-06-05 15:40,51.02223,-96.583055,3.1,3.7,302,985.36,13.6,70,11.92,0.0,1011.92,357.6
2019-06-05 15:50,51.0222083333333,-96.5831266666667,2.6,3.7,307,985.31,13.9,67,12.00,0.0,1011.86,357.6
2019-06-05 16:00,51.022225,-96.58309,1.7,2.2,306,985.20,14.2,63,11.94,0.0,1011.72,0.9
2019-06-05 16:10,51.022255,-96.5830483333333,2.7,3.3,295,985.24,14.2,67,11.99,0.0,1011.76,0.9
2019-06-05 16:20,51.0222733333333,-96.5830516666667,3.3,3.8,295,985.32,14.4,65,11.91,0.0,1011.83,0.9
2019-06-05 16:30,51.022225,-96.5830783333333,3.7,4.2,303,985.32,14.8,61,11.88,0.0,1011.81,0.9
2019-06-05 16:40,51.037135,-96.573675,6.4,11.0,359,985.17,14.9,61,12.02,5.8,1011.64,0.9
2019-06-05 16:50,51.0634,-96.5473833333333,9.0,10.7,27,985.06,14.6,64,11.92,11.2,1011.55,0.9
2019-06-05 17:00,51.0890283333333,-96.51927,7.2,7.9,22,985.20,14.2,73,11.89,11.2,1011.70,14.2
2019-06-05 17:10,51.1089216666667,-96.48088,6.2,6.9,31,985.27,14.6,69,12.03,11.3,1011.72,14.2
2019-06-05 17:20,51.1218166666667,-96.4575583333333,1.1,5.9,348,985.18,14.7,69,12.82,7.0,1011.59,14.2
2019-06-05 17:30,51.1269266666667,-96.4489066666667,3.8,4.4,214,985.11,17.9,55,13.45,2.7,1011.36,14.2
2019-06-05 17:40,51.13168,-96.4398283333333,4.3,4.9,216,985.01,21.4,47,13.55,2.7,1011.09,14.2
2019-06-05 17:50,51.1369816666667,-96.4291516666667,4.4,5.4,223,985.05,21.6,46,13.32,3.1,1011.11,14.2
2019-06-05 18:00,51.1420216666667,-96.420505,5.0,8.5,240,984.96,18.7,52,12.96,2.7,1011.15,39.4
2019-06-05 18:10,51.141885,-96.4203083333333,8.3,8.9,240,984.83,17.1,48,12.62,0.1,1011.08,39.4
2019-06-05 18:20,51.14188,-96.4203033333333,9.0,9.9,236,984.75,17.3,46,12.49,0.0,1010.96,39.4
2019-06-05 18:30,51.1418816666667,-96.4202933333333,9.5,11.0,236,984.67,17.3,48,12.73,0.0,1010.88,39.4
2019-06-05 18:40,51.1418816666667,-96.42029,10.7,12.3,231,984.61,16.1,70,12.96,0.0,1010.89,39.4
2019-06-05 18:50,51.141875,-96.4202616666667,12.1,13.3,232,984.55,14.8,84,13.01,0.0,1010.91,39.4
2019-06-05 19:00,51.1418816666667,-96.42027,10.9,12.1,228,984.46,14.7,85,12.98,0.0,1010.80,40.5
2019-06-05 19:10,51.1419033333333,-96.42031,9.4,10.5,223,984.31,14.8,82,13.07,0.0,1010.64,40.5
2019-06-05 19:20,51.1418916666667,-96.420305,10.2,11.0,228,984.17,15.0,75,13.00,0.0,1010.33,40.5
2019-06-05 19:30,51.1418816666667,-96.42029,9.7,10.7,232,984.09,15.9,62,12.94,0.0,1010.05,40.5
2019-06-05 19:40,51.1418783333333,-96.4202883333333,8.4,8.7,230,984.04,16.7,52,12.92,0.0,1009.96,40.5
2019-06-05 19:50,51.1418783333333,-96.4202883333333,8.5,9.0,226,983.96,17.1,49,12.94,0.0,1009.99,40.5
2019-06-05 20:00,51.1418783333333,-96.42029,7.9,8.5,227,983.91,16.7,53,12.92,0.0,1010.02,49.6
2019-06-05 20:10,51.1415933333333,-96.4209683333333,6.4,8.0,220,983.81,16.5,63,12.92,0.2,1009.92,49.6
2019-06-05 20:20,51.1394566666667,-96.46698,14.7,16.8,255,983.30,15.5,72,12.92,10.4,1009.45,49.6
2019-06-05 20:30,51.1381466666667,-96.51469,17.9,19.8,250,983.23,16.2,66,13.13,10.8,1009.39,49.6
2019-06-05 20:40,51.1371216666667,-96.5624983333333,19.6,21.1,244,983.07,15.2,79,13.51,10.8,1009.33,49.6
2019-06-05 20:50,51.1359666666667,-96.575185,11.6,15.2,217,983.55,15.2,77,13.56,2.9,1009.84,49.6
2019-06-05 21:00,51.135855,-96.5854016666667,11.9,12.6,222,983.82,15.3,73,13.62,2.3,1010.11,266.7
2019-06-05 21:10,51.1357333333333,-96.595635,11.5,12.3,224,984.03,15.5,70,13.35,2.3,1010.30,266.7
2019-06-05 21:20,51.1337333333333,-96.6189766666667,14.6,19.8,235,983.94,16.7,54,13.08,5.3,1010.12,266.7
2019-06-05 21:30,51.1332033333333,-96.6197616666667,7.7,12.9,235,984.06,18.7,45,13.08,0.3,1010.11,266.7
2019-06-05 21:40,51.1332566666667,-96.61977,4.4,5.3,215,983.61,18.7,49,13.05,0.0,1009.63,266.7
2019-06-05 21:50,51.1332716666667,-96.6198016666667,4.2,6.1,201,983.36,18.5,49,12.99,0.0,1009.40,266.7
2019-06-05 22:00,51.133255,-96.61974,8.2,9.4,208,983.31,18.0,50,12.96,0.0,1009.37,266.1
2019-06-05 22:10,51.1332666666667,-96.6197416666667,9.2,9.5,204,983.12,18.5,43,12.94,0.0,1009.21,266.1
2019-06-05 22:20,51.13327,-96.619755,8.3,9.2,203,983.22,18.4,45,12.99,0.0,1009.28,266.1
2019-06-05 22:30,51.1332666666667,-96.6197483333333,8.5,9.5,204,983.26,18.2,45,13.21,0.0,1009.38,266.1
2019-06-05 22:40,51.13326,-96.6197433333333,6.5,7.2,202,983.18,18.2,42,13.33,0.0,1009.29,266.1
2019-06-05 22:50,51.13326,-96.619755,5.4,6.9,202,983.05,18.1,42,13.34,0.0,1009.16,266.1
2019-06-05 23:00,51.1332316666667,-96.6197,5.6,6.1,207,983.08,18.7,39,13.46,0.0,1009.16,266.1
2019-06-05 23:10,51.1461666666667,-96.6165,2.0,8.2,271,983.07,18.9,38,13.49,4.7,1009.08,266.1
2019-06-05 23:20,51.17752,-96.6028233333333,7.4,11.5,17,982.95,18.3,48,12.95,11.7,1008.90,266.1
2019-06-05 23:30,51.197425,-96.61151,3.4,10.5,339,982.74,17.3,52,12.79,7.4,1008.73,266.1
2019-06-05 23:40,51.197125,-96.616535,2.6,4.4,201,982.69,17.0,62,12.83,1.1,1008.70,266.1
2019-06-05 23:50,51.1971333333333,-96.6165466666667,1.3,2.9,161,982.64,17.4,63,12.72,0.0,1008.65,266.1
